This is the latest recevied weather packets stored in our database for station/object EA4BCR. If no packets are shown the sender has not sent any weather packets the latest 10 day(s).
| Time | Temp. | Humidity | Pressure | Rain* | Wind** | Luminosity | Snow |
|---|---|---|---|---|---|---|---|
| 1787875815 | 19.44° C | 54% | 1017.8 hPa | - | - | - | - |
| 1787875215 | 20° C | 53% | 1017.6 hPa | - | - | - | - |
| 1787874615 | 20° C | 53% | 1017.6 hPa | - | - | - | - |
| 1787874015 | 20° C | 52% | 1017.6 hPa | - | - | - | - |
| 1787873415 | 20° C | 52% | 1017.4 hPa | - | - | - | - |
| 1787872815 | 20° C | 52% | 1017.3 hPa | - | - | - | - |
| 1787872215 | 20° C | 53% | 1017.2 hPa | - | - | - | - |
| 1787871617 | 19.44° C | 53% | 1017.3 hPa | - | - | - | - |
| 1787871015 | 20° C | 50% | 1017 hPa | - | - | - | - |
| 1787870415 | 20° C | 49% | 1016.8 hPa | - | - | - | - |
| 1787869815 | 20.56° C | 47% | 1016.6 hPa | - | - | - | - |
| 1787869215 | 21.11° C | 46% | 1016.5 hPa | - | - | - | - |
| 1787868615 | 21.11° C | 45% | 1016.4 hPa | - | - | - | - |
| 1787868016 | 21.11° C | 46% | 1016.3 hPa | - | - | - | - |
| 1787867415 | 21.11° C | 47% | 1016.1 hPa | - | - | - | - |
| 1787866815 | 21.11° C | 47% | 1016.1 hPa | - | - | - | - |
| 1787866215 | 21.11° C | 44% | 1015.9 hPa | - | - | - | - |
| 1787865615 | 21.67° C | 45% | 1015.8 hPa | - | - | - | - |
| 1787865015 | 21.67° C | 44% | 1015.7 hPa | - | - | - | - |
| 1787864415 | 21.67° C | 44% | 1015.5 hPa | - | - | - | - |
| 1787863815 | 21.67° C | 46% | 1015.4 hPa | - | - | - | - |
| 1787863215 | 21.67° C | 42% | 1015.2 hPa | - | - | - | - |
| 1787862615 | 21.67° C | 42% | 1015.1 hPa | - | - | - | - |
| 1787862015 | 21.67° C | 44% | 1014.7 hPa | - | - | - | - |
| 1787861415 | 22.22° C | 42% | 1014.4 hPa | - | - | - | - |
* Rain since midnight (hover to see other rain measurements)
** Current wind speed in m/s (hover to see current wind gust speed)